Year,Month,Day,Hour,Minute,Value (Times are PST for temperature in C)
2016,01,24,00,00,4.40
2016,01,24,00,01,4.20
2016,01,24,00,02,4.10
2016,01,24,00,03,3.90
2016,01,24,00,04,3.80
2016,01,24,00,05,3.60
2016,01,24,00,06,3.50
2016,01,24,00,07,3.30
2016,01,24,00,08,3.20
2016,01,24,00,09,3.10
2016,01,24,00,10,3.00
2016,01,24,00,11,3.00
2016,01,24,00,12,2.90
2016,01,24,00,13,2.80
2016,01,24,00,14,2.80
2016,01,24,00,15,2.80
2016,01,24,00,16,2.70
2016,01,24,00,17,2.70
2016,01,24,00,18,2.80
2016,01,24,00,19,2.80
2016,01,24,00,20,2.80
2016,01,24,00,21,2.80
2016,01,24,00,22,2.80
2016,01,24,00,23,2.80
2016,01,24,00,24,2.80
2016,01,24,00,25,2.80
2016,01,24,00,26,2.80
2016,01,24,00,27,2.80
2016,01,24,00,28,2.80
2016,01,24,00,29,2.80
2016,01,24,00,30,2.80
2016,01,24,00,31,2.80
2016,01,24,00,32,2.80
2016,01,24,00,33,2.70
2016,01,24,00,34,2.70
2016,01,24,00,35,2.70
2016,01,24,00,36,2.70
2016,01,24,00,37,2.70
2016,01,24,00,38,2.70
2016,01,24,00,39,2.70
2016,01,24,00,40,2.80
2016,01,24,00,41,2.80
2016,01,24,00,42,2.90
2016,01,24,00,43,2.90
2016,01,24,00,44,3.00
2016,01,24,00,45,3.10
2016,01,24,00,46,3.20
2016,01,24,00,47,3.30
2016,01,24,00,48,3.30
2016,01,24,00,49,3.30
2016,01,24,00,50,3.30
2016,01,24,00,51,3.30
2016,01,24,00,52,3.30
2016,01,24,00,53,3.30
2016,01,24,00,54,3.30
2016,01,24,00,55,3.30
2016,01,24,00,56,3.30
2016,01,24,00,57,3.20
2016,01,24,00,58,3.20
2016,01,24,00,59,3.10
2016,01,24,01,00,3.10
2016,01,24,01,01,3.10
2016,01,24,01,02,3.00
2016,01,24,01,03,2.90
2016,01,24,01,04,2.90
2016,01,24,01,05,2.80
2016,01,24,01,06,2.80
2016,01,24,01,07,2.80
2016,01,24,01,08,2.80
2016,01,24,01,09,2.80
2016,01,24,01,10,2.80
2016,01,24,01,11,2.80
2016,01,24,01,12,2.80
2016,01,24,01,13,2.80
2016,01,24,01,14,2.80
2016,01,24,01,15,2.80
2016,01,24,01,16,2.70
2016,01,24,01,17,2.70
2016,01,24,01,18,2.70
2016,01,24,01,19,2.70
2016,01,24,01,20,2.60
2016,01,24,01,21,2.60
2016,01,24,01,22,2.60
2016,01,24,01,23,2.60
2016,01,24,01,24,2.70
2016,01,24,01,25,2.70
2016,01,24,01,26,2.80
2016,01,24,01,27,2.80
2016,01,24,01,28,2.90
2016,01,24,01,29,3.00
2016,01,24,01,30,3.20
2016,01,24,01,31,3.30
2016,01,24,01,32,3.40
2016,01,24,01,33,3.50
2016,01,24,01,34,3.70
2016,01,24,01,35,3.80
2016,01,24,01,36,3.90
2016,01,24,01,37,4.00
2016,01,24,01,38,4.00
2016,01,24,01,39,4.10
2016,01,24,01,40,4.10
2016,01,24,01,41,4.20
2016,01,24,01,42,4.20
2016,01,24,01,43,4.20
2016,01,24,01,44,4.20
2016,01,24,01,45,4.20
2016,01,24,01,46,4.20
2016,01,24,01,47,4.20
2016,01,24,01,48,4.20
2016,01,24,01,49,4.20
2016,01,24,01,50,4.10
2016,01,24,01,51,4.10
2016,01,24,01,52,4.10
2016,01,24,01,53,4.10
2016,01,24,01,54,4.10
2016,01,24,01,55,4.10
2016,01,24,01,56,4.10
2016,01,24,01,57,4.10
2016,01,24,01,58,4.10
2016,01,24,01,59,4.10
2016,01,24,02,00,4.10
2016,01,24,02,01,4.10
2016,01,24,02,02,4.10
2016,01,24,02,03,4.10
2016,01,24,02,04,4.10
2016,01,24,02,05,4.10
2016,01,24,02,06,4.10
2016,01,24,02,07,4.10
2016,01,24,02,08,4.10
2016,01,24,02,09,4.10
2016,01,24,02,10,4.10
2016,01,24,02,11,4.10
2016,01,24,02,12,4.10
2016,01,24,02,13,4.10
2016,01,24,02,14,4.10
2016,01,24,02,15,4.10
2016,01,24,02,16,4.10
2016,01,24,02,17,4.10
2016,01,24,02,18,4.00
2016,01,24,02,19,3.90
2016,01,24,02,20,3.80
2016,01,24,02,21,3.70
2016,01,24,02,22,3.60
2016,01,24,02,23,3.50
2016,01,24,02,24,3.40
2016,01,24,02,25,3.30
2016,01,24,02,26,3.20
2016,01,24,02,27,3.10
2016,01,24,02,28,3.00
2016,01,24,02,29,3.00
2016,01,24,02,30,2.90
2016,01,24,02,31,2.80
2016,01,24,02,32,2.80
2016,01,24,02,33,2.80
2016,01,24,02,34,2.80
2016,01,24,02,35,2.80
2016,01,24,02,36,2.80
2016,01,24,02,37,2.80
2016,01,24,02,38,2.80
2016,01,24,02,39,2.90
2016,01,24,02,40,2.90
2016,01,24,02,41,2.80
2016,01,24,02,42,2.80
2016,01,24,02,43,2.70
2016,01,24,02,44,2.60
2016,01,24,02,45,2.60
2016,01,24,02,46,2.50
2016,01,24,02,47,2.50
2016,01,24,02,48,2.40
2016,01,24,02,49,2.40
2016,01,24,02,50,2.40
2016,01,24,02,51,2.30
2016,01,24,02,52,2.30
2016,01,24,02,53,2.30
2016,01,24,02,54,2.30
2016,01,24,02,55,2.30
2016,01,24,02,56,2.30
2016,01,24,02,57,2.30
2016,01,24,02,58,2.30
2016,01,24,02,59,2.30
2016,01,24,03,00,2.30
2016,01,24,03,01,2.30
2016,01,24,03,02,2.30
2016,01,24,03,03,2.30
2016,01,24,03,04,2.40
2016,01,24,03,05,2.40
2016,01,24,03,06,2.40
2016,01,24,03,07,2.40
2016,01,24,03,08,2.40
2016,01,24,03,09,2.40
2016,01,24,03,10,2.40
2016,01,24,03,11,2.40
2016,01,24,03,12,2.40
2016,01,24,03,13,2.40
2016,01,24,03,14,2.50
2016,01,24,03,15,2.50
2016,01,24,03,16,2.60
2016,01,24,03,17,2.60
2016,01,24,03,18,2.60
2016,01,24,03,19,2.60
2016,01,24,03,20,2.60
2016,01,24,03,21,2.60
2016,01,24,03,22,2.50
2016,01,24,03,23,2.50
2016,01,24,03,24,2.40
2016,01,24,03,25,2.30
2016,01,24,03,26,2.30
2016,01,24,03,27,2.30
2016,01,24,03,28,2.30
2016,01,24,03,29,2.20
2016,01,24,03,30,2.20
2016,01,24,03,31,2.20
2016,01,24,03,32,2.20
2016,01,24,03,33,2.20
2016,01,24,03,34,2.20
2016,01,24,03,35,2.10
2016,01,24,03,36,2.10
2016,01,24,03,37,2.10
2016,01,24,03,38,2.20
2016,01,24,03,39,2.30
2016,01,24,03,40,2.40
2016,01,24,03,41,2.50
2016,01,24,03,42,2.60
2016,01,24,03,43,2.70
2016,01,24,03,44,2.80
2016,01,24,03,45,2.80
2016,01,24,03,46,2.90
2016,01,24,03,47,3.00
2016,01,24,03,48,3.00
2016,01,24,03,49,3.10
2016,01,24,03,50,3.20
2016,01,24,03,51,3.20
2016,01,24,03,52,3.20
2016,01,24,03,53,3.10
2016,01,24,03,54,3.00
2016,01,24,03,55,2.90
2016,01,24,03,56,2.80
2016,01,24,03,57,2.80
2016,01,24,03,58,2.70
2016,01,24,03,59,2.70
2016,01,24,04,00,2.60
2016,01,24,04,01,2.60
2016,01,24,04,02,2.50
2016,01,24,04,03,2.40
2016,01,24,04,04,2.30
2016,01,24,04,05,2.30
2016,01,24,04,06,2.20
2016,01,24,04,07,2.10
2016,01,24,04,08,2.00
2016,01,24,04,09,2.00
2016,01,24,04,10,1.90
2016,01,24,04,11,1.80
2016,01,24,04,12,1.80
2016,01,24,04,13,1.70
2016,01,24,04,14,1.70
2016,01,24,04,15,1.70
2016,01,24,04,16,1.70
2016,01,24,04,17,1.70
2016,01,24,04,18,1.70
2016,01,24,04,19,1.70
2016,01,24,04,20,1.60
2016,01,24,04,21,1.60
2016,01,24,04,22,1.60
2016,01,24,04,23,1.60
2016,01,24,04,24,1.60
2016,01,24,04,25,1.60
2016,01,24,04,26,1.60
2016,01,24,04,27,1.60
2016,01,24,04,28,1.60
2016,01,24,04,29,1.60
2016,01,24,04,30,1.60
2016,01,24,04,31,1.60
2016,01,24,04,32,1.60
2016,01,24,04,33,1.60
2016,01,24,04,34,1.60
2016,01,24,04,35,1.60
2016,01,24,04,36,1.50
2016,01,24,04,37,1.50
2016,01,24,04,38,1.40
2016,01,24,04,39,1.30
2016,01,24,04,40,1.30
2016,01,24,04,41,1.20
2016,01,24,04,42,1.20
2016,01,24,04,43,1.10
2016,01,24,04,44,1.10
2016,01,24,04,45,1.10
2016,01,24,04,46,1.10
2016,01,24,04,47,1.10
2016,01,24,04,48,1.10
2016,01,24,04,49,1.10
2016,01,24,04,50,1.10
2016,01,24,04,51,1.10
2016,01,24,04,52,1.10
2016,01,24,04,53,1.10
2016,01,24,04,54,1.20
2016,01,24,04,55,1.20
2016,01,24,04,56,1.30
2016,01,24,04,57,1.30
2016,01,24,04,58,1.30
2016,01,24,04,59,1.40
2016,01,24,05,00,1.40
2016,01,24,05,01,1.40
2016,01,24,05,02,1.40
2016,01,24,05,03,1.40
2016,01,24,05,04,1.40
2016,01,24,05,05,1.40
2016,01,24,05,06,1.40
2016,01,24,05,07,1.40
2016,01,24,05,08,1.40
2016,01,24,05,09,1.40
2016,01,24,05,10,1.40
2016,01,24,05,11,1.30
2016,01,24,05,12,1.30
2016,01,24,05,13,1.30
2016,01,24,05,14,1.20
2016,01,24,05,15,1.20
2016,01,24,05,16,1.20
2016,01,24,05,17,1.20
2016,01,24,05,18,1.20
2016,01,24,05,19,1.10
2016,01,24,05,20,1.10
2016,01,24,05,21,1.00
2016,01,24,05,22,1.00
2016,01,24,05,23,0.90
2016,01,24,05,24,0.90
2016,01,24,05,25,0.80
2016,01,24,05,26,0.80
2016,01,24,05,27,0.70
2016,01,24,05,28,0.70
2016,01,24,05,29,0.70
2016,01,24,05,30,0.70
2016,01,24,05,31,0.60
2016,01,24,05,32,0.60
2016,01,24,05,33,0.60
2016,01,24,05,34,0.70
2016,01,24,05,35,0.70
2016,01,24,05,36,0.70
2016,01,24,05,37,0.80
2016,01,24,05,38,0.80
2016,01,24,05,39,0.80
2016,01,24,05,40,0.80
2016,01,24,05,41,0.80
2016,01,24,05,42,0.80
2016,01,24,05,43,0.70
2016,01,24,05,44,0.70
2016,01,24,05,45,0.70
2016,01,24,05,46,0.70
2016,01,24,05,47,0.70
2016,01,24,05,48,0.60
2016,01,24,05,49,0.60
2016,01,24,05,50,0.60
2016,01,24,05,51,0.50
2016,01,24,05,52,0.50
2016,01,24,05,53,0.50
2016,01,24,05,54,0.50
2016,01,24,05,55,0.50
2016,01,24,05,56,0.50
2016,01,24,05,57,0.50
2016,01,24,05,58,0.50
2016,01,24,05,59,0.60
2016,01,24,06,00,0.60
2016,01,24,06,01,0.60
2016,01,24,06,02,0.50
2016,01,24,06,03,0.50
2016,01,24,06,04,0.50
2016,01,24,06,05,0.50
2016,01,24,06,06,0.50
2016,01,24,06,07,0.50
2016,01,24,06,08,0.50
2016,01,24,06,09,0.50
2016,01,24,06,10,0.50
2016,01,24,06,11,0.50
2016,01,24,06,12,0.50
2016,01,24,06,13,0.50
2016,01,24,06,14,0.50
2016,01,24,06,15,0.50
2016,01,24,06,16,0.50
2016,01,24,06,17,0.50
2016,01,24,06,18,0.40
2016,01,24,06,19,0.40
2016,01,24,06,20,0.30
2016,01,24,06,21,0.30
2016,01,24,06,22,0.30
2016,01,24,06,23,0.20
2016,01,24,06,24,0.20
2016,01,24,06,25,0.20
2016,01,24,06,26,0.20
2016,01,24,06,27,0.20
2016,01,24,06,28,0.20
2016,01,24,06,29,0.20
2016,01,24,06,30,0.20
2016,01,24,06,31,0.20
2016,01,24,06,32,0.10
2016,01,24,06,33,0.10
2016,01,24,06,34,0.10
2016,01,24,06,35,0.10
2016,01,24,06,36,0.20
2016,01,24,06,37,0.20
2016,01,24,06,38,0.20
2016,01,24,06,39,0.20
2016,01,24,06,40,0.20
2016,01,24,06,41,0.20
2016,01,24,06,42,0.20
2016,01,24,06,43,0.20
2016,01,24,06,44,0.10
2016,01,24,06,45,0.10
2016,01,24,06,46,0.10
2016,01,24,06,47,0.10
2016,01,24,06,48,0.10
2016,01,24,06,49,0.10
2016,01,24,06,50,0.10
2016,01,24,06,51,0.10
2016,01,24,06,52,0.10
2016,01,24,06,53,0.10
2016,01,24,06,54,0.10
2016,01,24,06,55,0.10
2016,01,24,06,56,0.20
2016,01,24,06,57,0.20
2016,01,24,06,58,0.20
2016,01,24,06,59,0.20
2016,01,24,07,00,0.30
2016,01,24,07,01,0.30
2016,01,24,07,02,0.30
2016,01,24,07,03,0.30
2016,01,24,07,04,0.40
2016,01,24,07,05,0.40
2016,01,24,07,06,0.40
2016,01,24,07,07,0.40
2016,01,24,07,08,0.40
2016,01,24,07,09,0.40
2016,01,24,07,10,0.30
2016,01,24,07,11,0.20
2016,01,24,07,12,0.20
2016,01,24,07,13,0.10
2016,01,24,07,14,0.10
2016,01,24,07,15,0.10
2016,01,24,07,16,0.00
2016,01,24,07,17,0.00
2016,01,24,07,18,0.00
2016,01,24,07,19,-0.10
2016,01,24,07,20,-0.10
2016,01,24,07,21,-0.10
2016,01,24,07,22,-0.10
2016,01,24,07,23,-0.20
2016,01,24,07,24,-0.20
2016,01,24,07,25,-0.20
2016,01,24,07,26,-0.20
2016,01,24,07,27,-0.30
2016,01,24,07,28,-0.30
2016,01,24,07,29,-0.30
2016,01,24,07,30,-0.30
2016,01,24,07,31,-0.20
2016,01,24,07,32,-0.20
2016,01,24,07,33,-0.20
2016,01,24,07,34,-0.20
2016,01,24,07,35,-0.20
2016,01,24,07,36,-0.20
2016,01,24,07,37,-0.20
2016,01,24,07,38,-0.20
2016,01,24,07,39,-0.20
2016,01,24,07,40,-0.20
2016,01,24,07,41,-0.20
2016,01,24,07,42,-0.20
2016,01,24,07,43,-0.10
2016,01,24,07,44,-0.10
2016,01,24,07,45,-0.10
2016,01,24,07,46,-0.10
2016,01,24,07,47,-0.10
2016,01,24,07,48,-0.10
2016,01,24,07,49,0.00
2016,01,24,07,50,0.00
2016,01,24,07,51,0.00
2016,01,24,07,52,0.00
2016,01,24,07,53,0.00
2016,01,24,07,54,0.00
2016,01,24,07,55,0.00
2016,01,24,07,56,-0.10
2016,01,24,07,57,-0.10
2016,01,24,07,58,-0.10
2016,01,24,07,59,-0.10
2016,01,24,08,00,-0.10
2016,01,24,08,01,-0.10
2016,01,24,08,02,-0.10
2016,01,24,08,03,-0.10
2016,01,24,08,04,-0.10
2016,01,24,08,05,-0.10
2016,01,24,08,06,-0.10
2016,01,24,08,07,-0.10
2016,01,24,08,08,-0.10
2016,01,24,08,09,-0.10
2016,01,24,08,10,-0.20
2016,01,24,08,11,-0.20
2016,01,24,08,12,-0.20
2016,01,24,08,13,-0.20
2016,01,24,08,14,-0.20
2016,01,24,08,15,-0.20
2016,01,24,08,16,-0.20
2016,01,24,08,17,-0.20
2016,01,24,08,18,-0.20
2016,01,24,08,19,-0.20
2016,01,24,08,20,-0.20
2016,01,24,08,21,-0.30
2016,01,24,08,22,-0.30
2016,01,24,08,23,-0.30
2016,01,24,08,24,-0.30
2016,01,24,08,25,-0.30
2016,01,24,08,26,-0.30
2016,01,24,08,27,-0.30
2016,01,24,08,28,-0.30
2016,01,24,08,29,-0.30
2016,01,24,08,30,-0.30
2016,01,24,08,31,-0.20
2016,01,24,08,32,-0.10
2016,01,24,08,33,-0.10
2016,01,24,08,34,0.00
2016,01,24,08,35,0.00
2016,01,24,08,36,0.00
2016,01,24,08,37,0.00
2016,01,24,08,38,0.00
2016,01,24,08,39,0.00
2016,01,24,08,40,0.00
2016,01,24,08,41,-0.10
2016,01,24,08,42,-0.10
2016,01,24,08,43,-0.10
2016,01,24,08,44,-0.10
2016,01,24,08,45,-0.10
2016,01,24,08,46,-0.10
2016,01,24,08,47,-0.10
2016,01,24,08,48,-0.10
2016,01,24,08,49,0.00
2016,01,24,08,50,0.00
2016,01,24,08,51,0.00
2016,01,24,08,52,0.00
2016,01,24,08,53,0.00
2016,01,24,08,54,0.00
2016,01,24,08,55,0.00
2016,01,24,08,56,0.00
2016,01,24,08,57,0.00
2016,01,24,08,58,0.00
2016,01,24,08,59,0.00
2016,01,24,09,00,0.10
2016,01,24,09,01,0.10
2016,01,24,09,02,0.10
2016,01,24,09,03,0.20
2016,01,24,09,04,0.20
2016,01,24,09,05,0.30
2016,01,24,09,06,0.30
2016,01,24,09,07,0.30
2016,01,24,09,08,0.30
2016,01,24,09,09,0.40
2016,01,24,09,10,0.40
2016,01,24,09,11,0.40
2016,01,24,09,12,0.40
2016,01,24,09,13,0.50
2016,01,24,09,14,0.50
2016,01,24,09,15,0.50
2016,01,24,09,16,0.60
2016,01,24,09,17,0.60
2016,01,24,09,18,0.70
2016,01,24,09,19,0.70
2016,01,24,09,20,0.70
2016,01,24,09,21,0.70
2016,01,24,09,22,0.80
2016,01,24,09,23,0.80
2016,01,24,09,24,0.80
2016,01,24,09,25,0.90
2016,01,24,09,26,0.90
2016,01,24,09,27,1.00
2016,01,24,09,28,1.00
2016,01,24,09,29,1.00
2016,01,24,09,30,1.10
2016,01,24,09,31,1.10
2016,01,24,09,32,1.20
2016,01,24,09,33,1.20
2016,01,24,09,34,1.20
2016,01,24,09,35,1.30
2016,01,24,09,36,1.30
2016,01,24,09,37,1.30
2016,01,24,09,38,1.40
2016,01,24,09,39,1.40
2016,01,24,09,40,1.40
2016,01,24,09,41,1.50
2016,01,24,09,42,1.50
2016,01,24,09,43,1.50
2016,01,24,09,44,1.60
2016,01,24,09,45,1.60
2016,01,24,09,46,1.70
2016,01,24,09,47,1.70
2016,01,24,09,48,1.70
2016,01,24,09,49,1.70
2016,01,24,09,50,1.80
2016,01,24,09,51,1.80
2016,01,24,09,52,1.80
2016,01,24,09,53,1.80
2016,01,24,09,54,1.90
2016,01,24,09,55,1.90
2016,01,24,09,56,2.00
2016,01,24,09,57,2.00
2016,01,24,09,58,2.00
2016,01,24,09,59,2.10
2016,01,24,10,00,2.10
2016,01,24,10,01,2.10
2016,01,24,10,02,2.20
2016,01,24,10,03,2.20
2016,01,24,10,04,2.20
2016,01,24,10,05,2.20
2016,01,24,10,06,2.30
2016,01,24,10,07,2.30
2016,01,24,10,08,2.30
2016,01,24,10,09,2.30
2016,01,24,10,10,2.30
2016,01,24,10,11,2.30
2016,01,24,10,12,2.30
2016,01,24,10,13,2.40
2016,01,24,10,14,2.40
2016,01,24,10,15,2.40
2016,01,24,10,16,2.40
2016,01,24,10,17,2.50
2016,01,24,10,18,2.50
2016,01,24,10,19,2.60
2016,01,24,10,20,2.60
2016,01,24,10,21,2.60
2016,01,24,10,22,2.60
2016,01,24,10,23,2.60
2016,01,24,10,24,2.70
2016,01,24,10,25,2.70
2016,01,24,10,26,2.70
2016,01,24,10,27,2.70
2016,01,24,10,28,2.70
2016,01,24,10,29,2.70
2016,01,24,10,30,2.80
2016,01,24,10,31,2.80
2016,01,24,10,32,2.80
2016,01,24,10,33,2.80
2016,01,24,10,34,2.80
2016,01,24,10,35,2.90
2016,01,24,10,36,2.90
2016,01,24,10,37,2.90
2016,01,24,10,38,3.00
2016,01,24,10,39,3.00
2016,01,24,10,40,3.00
2016,01,24,10,41,3.10
2016,01,24,10,42,3.10
2016,01,24,10,43,3.20
2016,01,24,10,44,3.20
2016,01,24,10,45,3.20
2016,01,24,10,46,3.30
2016,01,24,10,47,3.30
2016,01,24,10,48,3.40
2016,01,24,10,49,3.40
2016,01,24,10,50,3.50
2016,01,24,10,51,3.50
2016,01,24,10,52,3.60
2016,01,24,10,53,3.60
2016,01,24,10,54,3.70
2016,01,24,10,55,3.70
2016,01,24,10,56,3.80
2016,01,24,10,57,3.80
2016,01,24,10,58,3.80
2016,01,24,10,59,3.90
2016,01,24,11,00,3.90
2016,01,24,11,01,4.00
2016,01,24,11,02,4.00
2016,01,24,11,03,4.10
2016,01,24,11,04,4.10
2016,01,24,11,05,4.20
2016,01,24,11,06,4.20
2016,01,24,11,07,4.30
2016,01,24,11,08,4.30
2016,01,24,11,09,4.40
2016,01,24,11,10,4.40
2016,01,24,11,11,4.50
2016,01,24,11,12,4.50
2016,01,24,11,13,4.60
2016,01,24,11,14,4.60
2016,01,24,11,15,4.60
2016,01,24,11,16,4.70
2016,01,24,11,17,4.70
2016,01,24,11,18,4.80
2016,01,24,11,19,4.80
2016,01,24,11,20,4.80
2016,01,24,11,21,4.90
2016,01,24,11,22,4.90
2016,01,24,11,23,4.90
2016,01,24,11,24,5.00
2016,01,24,11,25,5.00
2016,01,24,11,26,5.10
2016,01,24,11,27,5.10
2016,01,24,11,28,5.10
2016,01,24,11,29,5.20
2016,01,24,11,30,5.20
2016,01,24,11,31,5.30
2016,01,24,11,32,5.30
2016,01,24,11,33,5.40
2016,01,24,11,34,5.40
2016,01,24,11,35,5.50
2016,01,24,11,36,5.50
2016,01,24,11,37,5.50
2016,01,24,11,38,5.60
2016,01,24,11,39,5.60
2016,01,24,11,40,5.60
2016,01,24,11,41,5.60
2016,01,24,11,42,5.70
2016,01,24,11,43,5.70
2016,01,24,11,44,5.70
2016,01,24,11,45,5.70
2016,01,24,11,46,5.80
2016,01,24,11,47,5.80
2016,01,24,11,48,5.80
2016,01,24,11,49,5.80
2016,01,24,11,50,5.90
2016,01,24,11,51,5.90
2016,01,24,11,52,5.90
2016,01,24,11,53,6.00
2016,01,24,11,54,6.00
2016,01,24,11,55,6.10
2016,01,24,11,56,6.10
2016,01,24,11,57,6.10
2016,01,24,11,58,6.10
2016,01,24,11,59,6.20
2016,01,24,12,00,6.20
2016,01,24,12,01,6.20
2016,01,24,12,02,6.20
2016,01,24,12,03,6.20
2016,01,24,12,04,6.20
2016,01,24,12,05,6.30
2016,01,24,12,06,6.30
2016,01,24,12,07,6.30
2016,01,24,12,08,6.30
2016,01,24,12,09,6.30
2016,01,24,12,10,6.40
2016,01,24,12,11,6.40
2016,01,24,12,12,6.50
2016,01,24,12,13,6.50
2016,01,24,12,14,6.50
2016,01,24,12,15,6.60
2016,01,24,12,16,6.60
2016,01,24,12,17,6.70
2016,01,24,12,18,6.70
2016,01,24,12,19,6.70
2016,01,24,12,20,6.80
2016,01,24,12,21,6.80
2016,01,24,12,22,6.80
2016,01,24,12,23,6.80
2016,01,24,12,24,6.90
2016,01,24,12,25,6.90
2016,01,24,12,26,6.90
2016,01,24,12,27,7.00
2016,01,24,12,28,7.00
2016,01,24,12,29,7.10
2016,01,24,12,30,7.10
2016,01,24,12,31,7.10
2016,01,24,12,32,7.20
2016,01,24,12,33,7.20
2016,01,24,12,34,7.20
2016,01,24,12,35,7.30
2016,01,24,12,36,7.30
2016,01,24,12,37,7.30
2016,01,24,12,38,7.40
2016,01,24,12,39,7.40
2016,01,24,12,40,7.50
2016,01,24,12,41,7.60
2016,01,24,12,42,7.60
2016,01,24,12,43,7.70
2016,01,24,12,44,7.70
2016,01,24,12,45,7.70
2016,01,24,12,46,7.70
2016,01,24,12,47,7.70
2016,01,24,12,48,7.70
2016,01,24,12,49,7.70
2016,01,24,12,50,7.80
2016,01,24,12,51,7.80
2016,01,24,12,52,7.80
2016,01,24,12,53,7.80
2016,01,24,12,54,7.80
2016,01,24,12,55,7.80
2016,01,24,12,56,7.80
2016,01,24,12,57,7.80
2016,01,24,12,58,7.80
2016,01,24,12,59,7.80
2016,01,24,13,00,7.80
2016,01,24,13,01,7.80
2016,01,24,13,02,7.80
2016,01,24,13,03,7.80
2016,01,24,13,04,7.80
2016,01,24,13,05,7.80
2016,01,24,13,06,7.80
2016,01,24,13,07,7.80
2016,01,24,13,08,7.80
2016,01,24,13,09,7.80
2016,01,24,13,10,7.80
2016,01,24,13,11,7.80
2016,01,24,13,12,7.80
2016,01,24,13,13,7.80
2016,01,24,13,14,7.80
2016,01,24,13,15,7.80
2016,01,24,13,16,7.80
2016,01,24,13,17,7.80
2016,01,24,13,18,7.80
2016,01,24,13,19,7.80
2016,01,24,13,20,7.80
2016,01,24,13,21,7.80
2016,01,24,13,22,7.80
2016,01,24,13,23,7.80
2016,01,24,13,24,7.90
2016,01,24,13,25,7.80
2016,01,24,13,26,7.90
2016,01,24,13,27,7.90
2016,01,24,13,28,7.90
2016,01,24,13,29,7.90
2016,01,24,13,30,7.90
2016,01,24,13,31,7.90
2016,01,24,13,32,7.90
2016,01,24,13,33,7.90
2016,01,24,13,34,8.00
2016,01,24,13,35,8.00
2016,01,24,13,36,7.90
2016,01,24,13,37,7.90
2016,01,24,13,38,7.90
2016,01,24,13,39,7.90
2016,01,24,13,40,7.90
2016,01,24,13,41,7.90
2016,01,24,13,42,7.90
2016,01,24,13,43,7.90
2016,01,24,13,44,7.90
2016,01,24,13,45,7.90
2016,01,24,13,46,8.00
2016,01,24,13,47,8.00
2016,01,24,13,48,8.00
2016,01,24,13,49,8.00
2016,01,24,13,50,8.00
2016,01,24,13,51,8.00
2016,01,24,13,52,8.00
2016,01,24,13,53,8.00
2016,01,24,13,54,8.10
2016,01,24,13,55,8.10
2016,01,24,13,56,8.10
2016,01,24,13,57,8.20
2016,01,24,13,58,8.20
2016,01,24,13,59,8.20
2016,01,24,14,00,8.20
2016,01,24,14,01,8.20
2016,01,24,14,02,8.20
2016,01,24,14,03,8.20
2016,01,24,14,04,8.20
2016,01,24,14,05,8.20
2016,01,24,14,06,8.20
2016,01,24,14,07,8.20
2016,01,24,14,08,8.20
2016,01,24,14,09,8.20
2016,01,24,14,10,8.20
2016,01,24,14,11,8.20
2016,01,24,14,12,8.20
2016,01,24,14,13,8.20
2016,01,24,14,14,8.20
2016,01,24,14,15,8.20
2016,01,24,14,16,8.20
2016,01,24,14,17,8.20
2016,01,24,14,18,8.20
2016,01,24,14,19,8.30
2016,01,24,14,20,8.30
2016,01,24,14,21,8.30
2016,01,24,14,22,8.30
2016,01,24,14,23,8.40
2016,01,24,14,24,8.40
2016,01,24,14,25,8.40
2016,01,24,14,26,8.40
2016,01,24,14,27,8.40
2016,01,24,14,28,8.40
2016,01,24,14,29,8.40
2016,01,24,14,30,8.40
2016,01,24,14,31,8.50
2016,01,24,14,32,8.50
2016,01,24,14,33,8.50
2016,01,24,14,34,8.50
2016,01,24,14,35,8.50
2016,01,24,14,36,8.50
2016,01,24,14,37,8.50
2016,01,24,14,38,8.50
2016,01,24,14,39,8.50
2016,01,24,14,40,8.50
2016,01,24,14,41,8.50
2016,01,24,14,42,8.40
2016,01,24,14,43,8.40
2016,01,24,14,44,8.40
2016,01,24,14,45,8.40
2016,01,24,14,46,8.40
2016,01,24,14,47,8.40
2016,01,24,14,48,8.30
2016,01,24,14,49,8.30
2016,01,24,14,50,8.30
2016,01,24,14,51,8.30
2016,01,24,14,52,8.20
2016,01,24,14,53,8.20
2016,01,24,14,54,8.20
2016,01,24,14,55,8.20
2016,01,24,14,56,8.20
2016,01,24,14,57,8.20
2016,01,24,14,58,8.10
2016,01,24,14,59,8.10
2016,01,24,15,00,8.10
2016,01,24,15,01,8.10
2016,01,24,15,02,8.00
2016,01,24,15,03,8.00
2016,01,24,15,04,8.00
2016,01,24,15,05,8.00
2016,01,24,15,06,7.90
2016,01,24,15,07,7.90
2016,01,24,15,08,7.90
2016,01,24,15,09,7.80
2016,01,24,15,10,7.80
2016,01,24,15,11,7.80
2016,01,24,15,12,7.80
2016,01,24,15,13,7.80
2016,01,24,15,14,7.80
2016,01,24,15,15,7.80
2016,01,24,15,16,7.70
2016,01,24,15,17,7.70
2016,01,24,15,18,7.70
2016,01,24,15,19,7.70
2016,01,24,15,20,7.70
2016,01,24,15,21,7.70
2016,01,24,15,22,7.70
2016,01,24,15,23,7.70
2016,01,24,15,24,7.70
2016,01,24,15,25,7.70
2016,01,24,15,26,7.70
2016,01,24,15,27,7.70
2016,01,24,15,28,7.70
2016,01,24,15,29,7.70
2016,01,24,15,30,7.70
2016,01,24,15,31,7.70
2016,01,24,15,32,7.70
2016,01,24,15,33,7.70
2016,01,24,15,34,7.70
2016,01,24,15,35,7.70
2016,01,24,15,36,7.70
2016,01,24,15,37,7.70
2016,01,24,15,38,7.70
2016,01,24,15,39,7.70
2016,01,24,15,40,7.60
2016,01,24,15,41,7.60
2016,01,24,15,42,7.60
2016,01,24,15,43,7.60
2016,01,24,15,44,7.50
2016,01,24,15,45,7.50
2016,01,24,15,46,7.50
2016,01,24,15,47,7.50
2016,01,24,15,48,7.50
2016,01,24,15,49,7.50
2016,01,24,15,50,7.50
2016,01,24,15,51,7.50
2016,01,24,15,52,7.50
2016,01,24,15,53,7.50
2016,01,24,15,54,7.60
2016,01,24,15,55,7.60
2016,01,24,15,56,7.60
2016,01,24,15,57,7.50
2016,01,24,15,58,7.50
2016,01,24,15,59,7.50
2016,01,24,16,00,7.50
2016,01,24,16,01,7.50
2016,01,24,16,02,7.50
2016,01,24,16,03,7.50
2016,01,24,16,04,7.50
2016,01,24,16,05,7.50
2016,01,24,16,06,7.50
2016,01,24,16,07,7.50
2016,01,24,16,08,7.50
2016,01,24,16,09,7.50
2016,01,24,16,10,7.50
2016,01,24,16,11,7.50
2016,01,24,16,12,7.50
2016,01,24,16,13,7.50
2016,01,24,16,14,7.50
2016,01,24,16,15,7.50
2016,01,24,16,16,7.50
2016,01,24,16,17,7.50
2016,01,24,16,18,7.40
2016,01,24,16,19,7.40
2016,01,24,16,20,7.40
2016,01,24,16,21,7.40
2016,01,24,16,22,7.40
2016,01,24,16,23,7.40
2016,01,24,16,24,7.40
2016,01,24,16,25,7.40
2016,01,24,16,26,7.40
2016,01,24,16,27,7.40
2016,01,24,16,28,7.40
2016,01,24,16,29,7.40
2016,01,24,16,30,7.40
2016,01,24,16,31,7.40
2016,01,24,16,32,7.30
2016,01,24,16,33,7.30
2016,01,24,16,34,7.30
2016,01,24,16,35,7.30
2016,01,24,16,36,7.30
2016,01,24,16,37,7.30
2016,01,24,16,38,7.30
2016,01,24,16,39,7.30
2016,01,24,16,40,7.30
2016,01,24,16,41,7.30
2016,01,24,16,42,7.30
2016,01,24,16,43,7.30
2016,01,24,16,44,7.30
2016,01,24,16,45,7.30
2016,01,24,16,46,7.30
2016,01,24,16,47,7.30
2016,01,24,16,48,7.30
2016,01,24,16,49,7.30
2016,01,24,16,50,7.30
2016,01,24,16,51,7.30
2016,01,24,16,52,7.30
2016,01,24,16,53,7.30
2016,01,24,16,54,7.30
2016,01,24,16,55,7.30
2016,01,24,16,56,7.30
2016,01,24,16,57,7.20
2016,01,24,16,58,7.20
2016,01,24,16,59,7.20
2016,01,24,17,00,7.20
2016,01,24,17,01,7.20
2016,01,24,17,02,7.20
2016,01,24,17,03,7.20
2016,01,24,17,04,7.20
2016,01,24,17,05,7.20
2016,01,24,17,06,7.20
2016,01,24,17,07,7.20
2016,01,24,17,08,7.10
2016,01,24,17,09,7.10
2016,01,24,17,10,7.10
2016,01,24,17,11,7.10
2016,01,24,17,12,7.00
2016,01,24,17,13,7.00
2016,01,24,17,14,7.00
2016,01,24,17,15,6.90
2016,01,24,17,16,6.90
2016,01,24,17,17,6.90
2016,01,24,17,18,6.90
2016,01,24,17,19,6.90
2016,01,24,17,20,6.80
2016,01,24,17,21,6.80
2016,01,24,17,22,6.80
2016,01,24,17,23,6.80
2016,01,24,17,24,6.80
2016,01,24,17,25,6.80
2016,01,24,17,26,6.80
2016,01,24,17,27,6.80
2016,01,24,17,28,6.70
2016,01,24,17,29,6.70
2016,01,24,17,30,6.70
2016,01,24,17,31,6.70
2016,01,24,17,32,6.70
2016,01,24,17,33,6.70
2016,01,24,17,34,6.70
2016,01,24,17,35,6.70
2016,01,24,17,36,6.70
2016,01,24,17,37,6.70
2016,01,24,17,38,6.60
2016,01,24,17,39,6.60
2016,01,24,17,40,6.60
2016,01,24,17,41,6.60
2016,01,24,17,42,6.60
2016,01,24,17,43,6.50
2016,01,24,17,44,6.50
2016,01,24,17,45,6.50
2016,01,24,17,46,6.50
2016,01,24,17,47,6.40
2016,01,24,17,48,6.40
2016,01,24,17,49,6.40
2016,01,24,17,50,6.40
2016,01,24,17,51,6.40
2016,01,24,17,52,6.40
2016,01,24,17,53,6.40
2016,01,24,17,54,6.40
2016,01,24,17,55,6.40
2016,01,24,17,56,6.40
2016,01,24,17,57,6.40
2016,01,24,17,58,6.40
2016,01,24,17,59,6.40
2016,01,24,18,00,6.40
2016,01,24,18,01,6.40
2016,01,24,18,02,6.40
2016,01,24,18,03,6.40